[[{"header":{"parameterUnit":"m.s-1","parameterCategory":1,"la1":30.2991,"la2":30.254,"lo1":-89.0895,"lo2":-89.0444,"dx":0.0017,"dy":0.0017,"nx":28,"ny":28,"refTime":"2022-12-12T03:00:00:Z","depth":0,"parameterNumber":2,"parameterNumberName":"U-component_of_WINDS"},"data":[0,0,0,0,0,0,0,0,0,0,0,0,0,0,0,0,0,0,0,0,0,0,0,0,0,0,0,0,0,0,0,0,0,0,0,0,0,0,0,0,0,0,0,0,0,0,0,0,0,0,0,0,0,0,0,0,0,0,-1.9192,-1.9193,0,-1.9232,-1.9233,-1.9233,-1.9211,-1.921,-1.9209,-1.9208,-1.9248,-1.925,-1.9252,0,0,0,0,0,0,0,0,0,0,0,0,0,-1.9097,-1.9099,-1.9192,-1.9193,-1.9193,-1.9232,-1.9233,-1.9233,-1.9212,-1.921,-1.9209,-1.9208,-1.9247,-1.925,-1.9252,0,0,0,0,0,0,0,0,0,0,0,0,0,-1.9138,-1.9099,-1.9192,-1.9187,-1.9187,-1.9232,-1.9233,-1.9233,-1.9212,-1.921,-1.9209,-1.9207,-1.9246,-1.9249,-1.9253,-1.9304,0,0,-1.9262,-1.9263,0,0,0,0,0,0,0,0,-1.9135,-1.9141,-1.9187,-1.9187,-1.9188,-1.9215,-1.9214,-1.9257,-1.9212,-1.9202,-1.9208,-1.9206,-1.9238,-1.9242,-1.9253,-1.9306,-1.9308,-1.9262,-1.9264,-1.9266,-1.9266,0,0,0,0,0,0,0,-1.9132,-1.9139,-1.9208,-1.9188,-1.9188,-1.9183,-1.9187,-1.9222,-1.9229,-1.9203,-1.9202,-1.9207,-1.9238,-1.925,-1.9254,-1.9308,-1.9262,-1.9265,-1.9267,-1.9268,-1.9407,-1.9409,0,0,0,0,0,0,-1.913,-1.9137,-1.9207,-1.9209,-1.9157,-1.9186,-1.919,-1.9208,-1.9228,-1.923,-1.9208,-1.9206,-1.9246,-1.925,-1.9255,-1.9318,-1.9265,-1.9268,-1.927,-1.9406,-1.9408,-1.941,0,0,0,0,0,0,-1.9128,-1.9136,-1.9205,-1.9173,-1.9181,-1.9189,-1.9209,-1.921,-1.9222,-1.9232,-1.9233,-1.9219,-1.9244,-1.9251,-1.9293,-1.9319,-1.927,-1.9273,-1.9403,-1.9406,-1.9409,-1.9444,0,0,0,0,0,0,-1.9125,-1.9136,-1.9156,-1.9173,-1.9183,-1.9242,-1.9211,-1.9211,-1.9227,-1.9224,-1.9243,-1.9244,-1.9244,-1.9288,-1.9296,-1.9322,-1.9275,-1.9401,-1.9405,-1.9408,-1.944,-1.9447,-1.9453,0,0,0,0,0,-1.9122,-1.9163,-1.9157,-1.9165,-1.9208,-1.9244,-1.9249,-1.9248,-1.9229,-1.9249,-1.9256,-1.9244,-1.9315,-1.9293,-1.9301,-1.9329,-1.9399,-1.9404,-1.9408,-1.9437,-1.9446,-1.9453,0,0,0,0,0,0,-1.9148,-1.9166,-1.9158,-1.9207,-1.9224,-1.924,-1.9265,-1.9257,-1.9279,-1.9275,-1.9272,-1.9277,-1.9321,-1.9329,-1.9304,-1.9381,-1.9354,-1.936,-1.9374,-1.9382,-1.9389,-1.9386,-1.9278,0,0,0,0,0,-1.9159,-1.9187,-1.9201,-1.9242,-1.9251,-1.9257,-1.9272,-1.927,-1.9288,-1.9295,-1.9305,-1.9322,-1.9348,-1.9365,-1.939,-1.9441,-1.9445,-1.9465,-1.9471,-1.9477,-1.9482,-1.9511,-1.952,-1.9423,-1.9423,-1.9423,0,0,-1.9183,-1.9196,-1.9214,-1.9248,-1.9261,-1.929,-1.9263,-1.9295,-1.9316,-1.9299,-1.934,-1.9348,-1.9367,-1.9414,-1.9435,-1.9422,-1.951,-1.9482,-1.9486,-1.9489,-1.9516,-1.9525,-1.9533,-1.9426,-1.9426,-1.9425,0,0,-1.9241,-1.9254,-1.929,-1.9304,-1.9324,-1.9328,-1.9337,-1.9354,-1.9359,-1.94,-1.9388,-1.9414,-1.9459,-1.9473,-1.9487,-1.9552,-1.9541,-1.956,-1.9594,-1.9622,-1.963,-1.9636,-1.9661,-1.9669,-1.9565,-1.9565,-1.9565,0,-1.9268,-1.9311,-1.931,-1.9343,-1.9358,-1.9345,-1.9382,-1.9395,-1.9423,-1.9434,-1.9419,-1.9476,-1.9488,-1.9539,-1.9555,-1.9566,-1.9576,-1.9558,-1.9629,-1.9636,-1.9642,-1.9665,-1.9674,-1.9567,-1.9567,-1.9567,-1.9566,0,-1.9344,-1.9374,-1.9401,-1.9429,-1.9448,-1.9482,-1.9486,-1.9505,-1.9501,-1.9506,-1.9549,-1.9562,-1.959,-1.9602,-1.9598,-1.9653,-1.9644,-1.9629,-1.9602,-1.9653,-1.9675,-1.9683,-1.957,-1.9569,-1.9569,-1.9568,0,0,-1.9419,-1.9446,-1.9456,-1.9469,-1.9491,-1.9515,-1.9549,-1.9577,-1.9594,-1.9613,-1.9642,-1.9681,-1.9668,-1.9683,-1.9681,-1.9705,-1.9757,-1.9688,-1.9688,-1.9701,-1.9819,-1.9831,-1.9841,-1.975,-1.9752,-1.9753,-1.9818,0,-1.9479,-1.954,-1.954,-1.9596,-1.9625,-1.9613,-1.9643,-1.966,-1.9666,-1.9691,-1.9697,-1.9726,-1.9706,-1.9715,-1.9738,-1.9746,-1.9781,-1.9741,-1.9778,-1.9779,-1.9774,-1.9852,-1.9865,-1.9925,-1.9826,-1.9828,-1.9829,0,-1.9558,-1.9581,-1.9641,-1.966,-1.9672,-1.9699,-1.9725,-1.9749,-1.9768,-1.9771,-1.9788,-1.9783,-1.9818,-1.979,-1.9839,-1.9812,-1.9826,-1.9833,-1.9835,-1.9839,-1.9807,-1.9859,-1.9944,-1.9953,-1.9842,-1.9841,-1.984,0,-1.9608,-1.9654,-1.9696,-1.9707,-1.973,-1.975,-1.976,-1.9778,-1.9795,-1.9818,-1.9829,-1.9855,-1.987,-1.989,-1.9891,-1.9871,-1.9941,-1.9913,-1.9945,-1.9945,-1.996,-1.9959,-2.005,-1.9969,-1.9969,-1.9968,-1.9968,0,-1.9676,-1.9713,-1.9719,-1.9745,-1.9786,-1.9786,-1.9826,-1.9835,-1.9851,-1.9878,-1.9869,-1.9895,-1.9895,-1.9921,-1.9923,-1.9964,-1.997,-1.9973,-1.9973,-1.9974,-1.9974,-1.9985,-1.9981,-1.9971,-1.997,-1.997,-1.9969,0,-1.9739,-1.9744,-1.9789,-1.9808,-1.9814,-1.9843,-1.9859,-1.9884,-1.9889,-1.9924,-1.9932,-1.9941,-1.9971,-1.9975,-2.001,-2.0011,-2.0061,-2.0056,-2.0054,-2.0054,-2.0086,-2.0083,-2.0186,-2.02,-2.011,-2.011,-2.0111,0,-1.9782,-1.981,-1.9833,-1.9851,-1.9863,-1.9892,-1.991,-1.991,-1.9929,-1.9954,-1.9976,-2.0006,-2.003,-2.0079,-2.0088,-2.0116,-2.0112,-2.0146,-2.0116,-2.0116,-2.0113,-2.0112,-2.0115,-2.0152,-2.0153,-2.0154,-2.0155,0,-1.9858,-1.986,-1.9886,-1.9914,-1.9936,-1.9958,-1.9978,-1.9994,-1.9997,-2.0019,-2.005,-2.0069,-2.0106,-2.0136,-2.0163,-2.0173,-2.0165,-2.0164,-2.0173,-2.0175,-2.0173,-2.0175,-2.0071,-2.0162,-2.0161,-2.016,-2.016,-2.016,-1.9913,-1.9939,-1.9959,-1.9989,-2.0004,-2.0024,-2.0049,-2.0058,-2.0084,-2.0115,-2.0114,-2.0149,-2.0168,-2.0204,-2.0216,-2.0244,-2.0232,-2.0245,-2.0248,-2.0251,-2.0255,-2.0169,-2.0248,-2.0248,-2.0248,-2.0248,-2.0248,0,-1.999,-2.0003,-2.003,-2.006,-2.0084,-2.0074,-2.0097,-2.0117,-2.0149,-2.0167,-2.0192,-2.0229,-2.0258,-2.027,-2.0299,-2.0318,-2.0315,-2.0326,-2.0325,-2.0327,-2.0263,-2.0253,-2.0328,-2.0328,-2.0328,-2.0328,-2.0328,-2.0328,-2.0033,-2.0076,-2.008,-2.013,-2.0142,-2.0178,-2.0191,-2.021,-2.0225,-2.0267,-2.0292,-2.0299,-2.0316,-2.0346,-2.0372,-2.0375,-2.0386,-2.0399,-2.04,-2.034,-2.0332,-2.0324,-2.0315,-2.0401,-2.0401,-2.0462,-2.0463,-2.0463]},{"header":{"parameterUnit":"m.s-1","parameterCategory":1,"la1":30.2991,"la2":30.254,"lo1":-89.0895,"lo2":-89.0444,"dx":0.0017,"dy":0.0017,"nx":28,"ny":28,"refTime":"2022-12-12T03:00:00:Z","depth":0,"parameterNumber":3,"parameterNumberName":"V-component_of_WINDS"},"data":[0,0,0,0,0,0,0,0,0,0,0,0,0,0,0,0,0,0,0,0,0,0,0,0,0,0,0,0,0,0,0,0,0,0,0,0,0,0,0,0,0,0,0,0,0,0,0,0,0,0,0,0,0,0,0,0,0,0,-0.7821,-0.7821,0,-0.7781,-0.7781,-0.778,-0.7754,-0.7754,-0.7754,-0.7754,-0.7712,-0.7711,-0.771,0,0,0,0,0,0,0,0,0,0,0,0,0,-0.7872,-0.7872,-0.7821,-0.7821,-0.782,-0.7781,-0.7781,-0.778,-0.7754,-0.7754,-0.7754,-0.7754,-0.7712,-0.7711,-0.771,0,0,0,0,0,0,0,0,0,0,0,0,0,-0.7843,-0.7871,-0.7821,-0.7803,-0.7801,-0.7781,-0.7781,-0.778,-0.7754,-0.7754,-0.7754,-0.7754,-0.7712,-0.7711,-0.771,-0.7706,0,0,-0.7705,-0.7704,0,0,0,0,0,0,0,0,-0.7845,-0.7841,-0.7806,-0.7804,-0.7802,-0.7772,-0.7783,-0.7755,-0.7754,-0.7772,-0.7754,-0.7753,-0.7732,-0.7729,-0.7722,-0.7704,-0.7702,-0.7705,-0.7704,-0.7703,-0.7703,0,0,0,0,0,0,0,-0.7847,-0.7843,-0.7805,-0.7805,-0.7803,-0.7795,-0.7791,-0.7778,-0.7754,-0.777,-0.7768,-0.7764,-0.7731,-0.7723,-0.7721,-0.7701,-0.7705,-0.7704,-0.7703,-0.7702,-0.7675,-0.7675,0,0,0,0,0,0,-0.7852,-0.7845,-0.7807,-0.7804,-0.7823,-0.7795,-0.779,-0.7782,-0.7754,-0.7749,-0.7764,-0.7763,-0.7726,-0.7722,-0.7719,-0.7711,-0.7704,-0.7702,-0.7701,-0.7675,-0.7675,-0.7675,0,0,0,0,0,0,-0.7853,-0.7849,-0.7808,-0.7824,-0.7818,-0.7794,-0.7786,-0.7781,-0.7774,-0.7749,-0.7745,-0.7761,-0.7726,-0.7721,-0.7709,-0.771,-0.7701,-0.77,-0.7675,-0.7675,-0.7675,-0.7697,0,0,0,0,0,0,-0.7855,-0.785,-0.7849,-0.7824,-0.7817,-0.7799,-0.7786,-0.7781,-0.7772,-0.777,-0.7745,-0.7741,-0.7725,-0.7711,-0.7707,-0.7707,-0.7699,-0.7674,-0.7675,-0.7675,-0.7696,-0.7698,-0.7699,0,0,0,0,0,-0.7857,-0.7857,-0.7849,-0.7844,-0.7816,-0.78,-0.7796,-0.7778,-0.7772,-0.777,-0.7754,-0.7742,-0.771,-0.771,-0.7706,-0.7705,-0.7674,-0.7675,-0.7675,-0.7695,-0.7697,-0.7699,0,0,0,0,0,0,-0.7882,-0.7853,-0.7844,-0.7836,-0.7821,-0.7795,-0.7793,-0.7781,-0.7767,-0.7765,-0.7743,-0.7738,-0.7727,-0.7715,-0.7715,-0.7699,-0.7691,-0.769,-0.7707,-0.7709,-0.7711,-0.7714,-0.7698,0,0,0,0,0,-0.7887,-0.7877,-0.7852,-0.7847,-0.7839,-0.7817,-0.781,-0.7797,-0.778,-0.7773,-0.7756,-0.7739,-0.7725,-0.7716,-0.7702,-0.7693,-0.7687,-0.7691,-0.7693,-0.7694,-0.7694,-0.7686,-0.7687,-0.7676,-0.7676,-0.7676,0,0,-0.7897,-0.7879,-0.7874,-0.7851,-0.7838,-0.7827,-0.7812,-0.7802,-0.7793,-0.7771,-0.7758,-0.7745,-0.7724,-0.7713,-0.7708,-0.7703,-0.7695,-0.7695,-0.7696,-0.7695,-0.7687,-0.7688,-0.7689,-0.7676,-0.7676,-0.7676,0,0,-0.7908,-0.7895,-0.7889,-0.7875,-0.7854,-0.7839,-0.7838,-0.7814,-0.7804,-0.779,-0.7773,-0.7762,-0.7739,-0.7724,-0.7714,-0.7718,-0.7705,-0.7713,-0.7722,-0.7715,-0.7716,-0.7717,-0.7717,-0.7718,-0.7713,-0.7713,-0.7713,0,-0.7923,-0.7906,-0.7887,-0.7877,-0.7866,-0.7846,-0.7839,-0.7826,-0.7802,-0.7795,-0.779,-0.7758,-0.7743,-0.7728,-0.7728,-0.7721,-0.7717,-0.7717,-0.7718,-0.7718,-0.7719,-0.7718,-0.7719,-0.7714,-0.7714,-0.7714,-0.7714,0,-0.7925,-0.7913,-0.791,-0.7887,-0.7876,-0.7868,-0.7846,-0.7837,-0.7825,-0.781,-0.7795,-0.7776,-0.7756,-0.7752,-0.774,-0.7733,-0.7731,-0.7722,-0.7714,-0.7721,-0.772,-0.772,-0.7716,-0.7716,-0.7715,-0.7715,0,0,-0.7953,-0.7918,-0.7917,-0.7905,-0.788,-0.787,-0.7859,-0.7841,-0.7833,-0.7816,-0.7806,-0.7785,-0.7776,-0.7765,-0.775,-0.7744,-0.7746,-0.7736,-0.7735,-0.7738,-0.7737,-0.7743,-0.7744,-0.7738,-0.7738,-0.7738,-0.7738,0,-0.7961,-0.7942,-0.7923,-0.791,-0.7898,-0.7877,-0.7867,-0.785,-0.7835,-0.7822,-0.7805,-0.7791,-0.7781,-0.7773,-0.7766,-0.7748,-0.7746,-0.7748,-0.7727,-0.7727,-0.7733,-0.7744,-0.7751,-0.7753,-0.7738,-0.7738,-0.7738,0,-0.7968,-0.7951,-0.7938,-0.7911,-0.7906,-0.7898,-0.7878,-0.7866,-0.7845,-0.7834,-0.782,-0.7804,-0.779,-0.7783,-0.7763,-0.7764,-0.7754,-0.7744,-0.7743,-0.7741,-0.7733,-0.7741,-0.7753,-0.7753,-0.7737,-0.7737,-0.7737,0,-0.7989,-0.7963,-0.7951,-0.7942,-0.7911,-0.7906,-0.7893,-0.7872,-0.7861,-0.7843,-0.7835,-0.7816,-0.7805,-0.779,-0.7769,-0.7765,-0.775,-0.7741,-0.774,-0.774,-0.7738,-0.7738,-0.7748,-0.7732,-0.7732,-0.7732,-0.7732,0,-0.7999,-0.7991,-0.796,-0.7953,-0.7942,-0.792,-0.791,-0.7895,-0.7875,-0.7864,-0.7844,-0.7833,-0.7806,-0.7791,-0.7775,-0.7759,-0.7755,-0.7745,-0.7741,-0.7747,-0.7748,-0.774,-0.7739,-0.7732,-0.7732,-0.7732,-0.7732,0,-0.8022,-0.8001,-0.7986,-0.7957,-0.795,-0.7944,-0.7919,-0.791,-0.7893,-0.7878,-0.7873,-0.7846,-0.7828,-0.7805,-0.778,-0.7768,-0.7754,-0.7748,-0.7762,-0.7759,-0.7759,-0.7759,-0.7764,-0.7762,-0.7748,-0.7748,-0.7748,0,-0.803,-0.8023,-0.7994,-0.7985,-0.7972,-0.7958,-0.7946,-0.7922,-0.7911,-0.7885,-0.7879,-0.7859,-0.7842,-0.7812,-0.779,-0.777,-0.7762,-0.7765,-0.7759,-0.7765,-0.7761,-0.7762,-0.776,-0.7767,-0.7767,-0.7768,-0.7768,0,-0.8046,-0.8036,-0.802,-0.8001,-0.7987,-0.797,-0.7953,-0.7946,-0.7918,-0.7906,-0.7887,-0.7873,-0.7846,-0.7826,-0.7802,-0.7787,-0.7772,-0.777,-0.7768,-0.7774,-0.7782,-0.7777,-0.7766,-0.777,-0.777,-0.777,-0.7769,-0.7769,-0.8062,-0.8054,-0.8032,-0.8014,-0.7998,-0.7982,-0.7971,-0.7953,-0.7936,-0.7913,-0.7899,-0.788,-0.7856,-0.7823,-0.7808,-0.7792,-0.7787,-0.7785,-0.7784,-0.7784,-0.7785,-0.7785,-0.7787,-0.7787,-0.7787,-0.7787,-0.7787,0,-0.8076,-0.8061,-0.8045,-0.802,-0.8006,-0.7993,-0.7972,-0.7961,-0.7944,-0.7924,-0.7907,-0.7884,-0.7863,-0.7838,-0.7816,-0.7807,-0.78,-0.7802,-0.7802,-0.7799,-0.7792,-0.7795,-0.7809,-0.7809,-0.7809,-0.7809,-0.7809,-0.7808,-0.8083,-0.8069,-0.8055,-0.8032,-0.8015,-0.7997,-0.7986,-0.7969,-0.7953,-0.7928,-0.7911,-0.7895,-0.7872,-0.7847,-0.7827,-0.782,-0.7812,-0.7816,-0.7807,-0.7801,-0.78,-0.7798,-0.7801,-0.7815,-0.7815,-0.7816,-0.7816,-0.7816]}]]